Flag for Germany Weather past 2 weeks in Verden (Aller), Lower Saxony, Germany

Now
52 °F

Sunny.


Feels Like: 49 °F
Forecast: 45 / 59 °F
Wind: 7 mph from South

Location: Bremen Airport

Current Time: May 27, 2015 at 11:10:07 PM

Latest Report: May 27, 2015 at 10:20 PM


Visibility: 10 mi

Pressure: 30.07 "Hg

Humidity: 77%

Dew point: 45 °F

Location of Verden (Aller)Location

Historic Weather in Verden (Aller) — Graph

°F

Verden (Aller) temperature yesterday

Maximum temperature yesterday: 57 °F (at 2:50 PM)
Minimum temperature yesterday: 43 °F (at 5:50 AM)
Average temperature yesterday: 51 °F

Past Weeks' High & Low Weather Summary

 TemperatureHumidityPressure
High66 °F (May 22, 1:50 PM)100% (May 16, 1:50 AM)30.30 "Hg (May 16, 1:50 AM)
Low34 °F (May 16, 5:20 AM)36% (May 25, 4:50 PM)29.59 "Hg (May 18, 7:20 PM)
Average52 °F73%30.04 "Hg
* Reported May 12 9:20 PM — May 27 9:50 PM, Verden (Aller), Weather by CustomWeather, © 2015

Note: Actual official high and low records may vary slightly from our data, if they occured in-between our weather recording intervals... More about our weather records

Advertising

Verden (Aller) weather history for previous 24 hours

 ConditionsComfort  
Time TempWeatherWind HumidityBarometerVisibility
9:50 PM
Wed, May 27
54 °FSunny.7 mph72%30.07 "Hg10 mi
9:20 PM55 °FSunny.6 mph67%30.07 "Hg10 mi
8:50 PM55 °FSunny.7 mph67%30.07 "Hg10 mi
8:20 PM57 °FPassing clouds.6 mph63%30.09 "HgN/A
7:50 PM57 °FPartly sunny.7 mph59%30.09 "HgN/A
7:20 PM57 °FPartly sunny.7 mph63%30.09 "HgN/A
6:50 PM57 °FPartly sunny.9 mph59%30.12 "HgN/A
6:20 PM59 °FBroken clouds.8 mph55%30.12 "HgN/A
5:50 PM57 °FPartly sunny.9 mph59%30.12 "HgN/A
5:20 PM57 °FBroken clouds.8 mph59%30.15 "HgN/A
4:50 PM57 °FBroken clouds.9 mph55%30.15 "HgN/A
4:20 PM59 °FPartly sunny.8 mph51%30.15 "HgN/A
3:50 PM59 °FPartly sunny.7 mph51%30.15 "HgN/A
3:20 PM59 °FBroken clouds.8 mph51%30.15 "HgN/A
2:50 PM59 °FBroken clouds.9 mph51%30.15 "HgN/A
2:20 PM57 °FPartly sunny.10 mph55%30.18 "HgN/A
1:50 PM57 °FPartly sunny.8 mph55%30.18 "HgN/A
1:20 PM57 °FBroken clouds.8 mph55%30.18 "HgN/A
12:50 PM55 °FBroken clouds.12 mph55%30.18 "HgN/A
12:20 PM59 °FScattered clouds.12 mph48%30.18 "HgN/A
11:50 AM57 °FScattered clouds.10 mph55%30.18 "HgN/A
11:20 AM57 °FScattered clouds.13 mph51%30.18 "HgN/A
10:50 AM57 °FScattered clouds.12 mph51%30.18 "HgN/A
10:20 AM55 °FScattered clouds.14 mph55%30.21 "HgN/A
9:50 AM52 °FScattered clouds.13 mph67%30.21 "HgN/A
9:20 AM54 °FScattered clouds.14 mph63%30.18 "HgN/A
8:50 AM52 °FScattered clouds.15 mph72%30.18 "HgN/A
8:20 AM52 °FPartly sunny.14 mph77%30.18 "HgN/A
7:50 AM52 °FPartly sunny.13 mph77%30.18 "HgN/A
7:20 AM50 °FPassing clouds.12 mph82%30.18 "HgN/A
6:50 AM48 °FPassing clouds.8 mph87%30.18 "HgN/A
6:20 AM48 °FPartly sunny.9 mph87%30.18 "HgN/A
5:50 AM46 °FPassing clouds.10 mph87%30.18 "HgN/A
5:20 AM48 °FPassing clouds.10 mph87%30.18 "HgN/A
4:50 AM48 °FPassing clouds.10 mph82%30.18 "HgN/A
4:20 AM48 °FPartly cloudy.9 mph82%30.18 "HgN/A
3:50 AM48 °FClear.8 mph82%30.18 "Hg10 mi
3:20 AM46 °FClear.8 mph87%30.18 "Hg10 mi
2:50 AM46 °FClear.8 mph87%30.18 "Hg10 mi
2:20 AM48 °FClear.9 mph82%30.18 "Hg10 mi
1:50 AM48 °FPassing clouds.9 mph82%30.18 "HgN/A
1:20 AM48 °FClear.9 mph82%30.18 "Hg10 mi
12:50 AM45 °FPassing clouds.7 mph87%30.18 "HgN/A
12:20 AM46 °FClear.7 mph82%30.18 "Hg10 mi
11:20 PM
Tue, May 26
50 °FPassing clouds.9 mph76%30.18 "HgN/A
Weather by CustomWeather, © 2015

See weather overviewHow to use our weather pages